TimeCDT,TemperatureF,Dew PointF,Humidity,Sea Level PressureIn,VisibilityMPH,Wind Direction,Wind SpeedMPH,Gust SpeedMPH,PrecipitationIn,Events,Conditions,WindDirDegrees,DateUTC
12:53 AM,71.1,64.9,81,30.07,10.0,Calm,Calm,-,N/A,,Mostly Cloudy,0,2013-10-02 05:53:00
1:53 AM,71.1,64.0,78,30.07,10.0,Calm,Calm,-,N/A,,Overcast,0,2013-10-02 06:53:00
2:53 AM,69.1,63.0,81,30.06,10.0,Calm,Calm,-,N/A,,Partly Cloudy,0,2013-10-02 07:53:00
3:53 AM,66.9,63.0,87,30.06,10.0,Calm,Calm,-,N/A,,Partly Cloudy,0,2013-10-02 08:53:00
4:53 AM,66.0,63.0,90,30.06,10.0,Calm,Calm,-,N/A,,Mostly Cloudy,0,2013-10-02 09:53:00
5:53 AM,66.9,62.1,84,30.06,10.0,ENE,3.5,-,N/A,,Scattered Clouds,60,2013-10-02 10:53:00
6:53 AM,66.9,63.0,87,30.08,10.0,Calm,Calm,-,N/A,,Mostly Cloudy,0,2013-10-02 11:53:00
7:53 AM,69.1,64.0,84,30.09,10.0,Calm,Calm,-,N/A,,Overcast,0,2013-10-02 12:53:00
8:53 AM,71.1,64.9,81,30.11,10.0,East,3.5,-,N/A,,Overcast,80,2013-10-02 13:53:00
9:53 AM,75.0,66.0,73,30.11,10.0,NNE,4.6,-,N/A,,Overcast,30,2013-10-02 14:53:00
10:53 AM,80.1,66.9,64,30.10,10.0,ENE,4.6,-,N/A,,Overcast,60,2013-10-02 15:53:00
11:53 AM,78.1,66.0,66,30.09,10.0,Calm,Calm,-,N/A,,Partly Cloudy,0,2013-10-02 16:53:00
12:53 PM,81.0,64.9,58,30.07,10.0,Variable,4.6,-,N/A,,Clear,0,2013-10-02 17:53:00
1:53 PM,82.9,64.0,53,30.06,10.0,East,5.8,-,N/A,,Clear,100,2013-10-02 18:53:00
2:53 PM,82.0,66.0,58,30.04,10.0,Variable,4.6,-,N/A,,Clear,0,2013-10-02 19:53:00
3:53 PM,80.1,64.9,60,30.03,10.0,Calm,Calm,-,N/A,,Clear,0,2013-10-02 20:53:00
4:53 PM,79.0,68.0,69,30.03,10.0,Calm,Calm,-,N/A,,Clear,0,2013-10-02 21:53:00
5:53 PM,79.0,66.0,64,30.04,10.0,Calm,Calm,-,N/A,,Clear,0,2013-10-02 22:53:00
6:53 PM,72.0,68.0,87,30.04,10.0,Calm,Calm,-,N/A,,Clear,0,2013-10-02 23:53:00
7:53 PM,73.0,68.0,84,30.05,10.0,ENE,3.5,-,N/A,,Clear,60,2013-10-03 00:53:00
8:53 PM,70.0,66.9,90,30.06,8.0,Variable,3.5,-,N/A,,Clear,0,2013-10-03 01:53:00
9:53 PM,69.1,66.9,93,30.08,7.0,Calm,Calm,-,N/A,,Clear,0,2013-10-03 02:53:00
10:53 PM,68.0,66.0,93,30.09,5.0,Calm,Calm,-,N/A,,Clear,0,2013-10-03 03:53:00
11:53 PM,68.0,66.9,96,30.07,7.0,NNE,3.5,-,N/A,,Clear,30,2013-10-03 04:53:00